Weather in Shabo

Ukraine / Odesa District     46°07′37″N   30°23′06″E
temp.,
°C
wind,
m/s
gust,
m/s
humid.,
%
clouds,
%
prec.,
mm/h
press.,
hPa
HPBL,
m
13 april, tue
tue1300:00+8ssw348280 0.0 1021120
03:00+8s3379100 0.0 102040
06:00+8sse4478100 0.0 102065
09:00+10sse4569100 0.0 1020206
12:00+10sse5769100 0.0 1020375
15:00+11sse6766100 0.0 1019403
18:00+10sse5768100 0.0 1018256
21:00+8sse4783100 0.0 1018148
14 april, wed
wed1400:00+8sse488598 0.0 1018177
03:00+7sse4790100 0.0 1017149
06:00+7se4792100 0.0 1016198
09:00+9se588367 0.0 1016402
12:00+10se81079100 0.0 1015680
15:00+9se71082100 0.1 1014647
18:00+8ese71196100 1.8 1012437
21:00+8se6898100 2.4 1012258
15 april, thu
thu1500:00+8sse469597 0.1 1010149
03:00+8sw4796100 0.2 1011214
06:00+8sw4696100 0.8 1011229
09:00+7w7985100 0.9 1013416
12:00+9w887396 0.0 1013850
15:00+9w81067100 0.0 1014946
18:00+9w61069100 0.0 1015975
21:00+7w467682 0.0 1015146
16 april, fri
fri1600:00+5w478149 0.0 1015243
03:00+5wnw5882100 0.0 1015418
06:00+5wnw5879100 0.0 1015536
09:00+7w577224 0.0 1016711
12:00+9sw575873 0.0 10151045
15:00+11wsw5852100 0.1 10151221
18:00+9s677074 0.1 1016344
21:00+9wnw357122 0.1 101799
17 april, sat
sat1700:00+6nw598447 0.0 1018343
03:00+5nw598933 0.0 1018336
06:00+6nw488887 0.0 1019398
09:00+7wnw4579100 0.0 1020652
12:00+10wnw3372100 0.0 1020586
15:00+11sw136629 0.0 1019716
18:00+10s337292 0.0 1019324
21:00+8sse238177 0.0 102058